Lapse_Rate
4.8 4.6 4.5 4.3 4.9 6.0 6.0 5.8 5.9 7.1 8.7 9.6 9.6 9.6 9.5 9.4 9.4 9.3 9.3 9.3 9.4 9.5 9.6 9.3 9.4 8.9 8.2
5.0 4.5 4.4 4.3 4.5 4.4 6.4 7.3 7.0 7.2 8.2 8.8 9.4 9.5 9.5 9.5 9.0 9.0 9.4 9.4 9.3 8.9 9.0 9.2 8.9 9.3 9.2
5.1 5.1 5.2 4.8 5.5 5.2 5.1 5.8 6.7 7.8 8.2 8.3 8.7 8.9 9.0 9.1 9.2 9.6 8.6 8.8 9.0 9.4 9.5 9.4 9.5 9.4 9.3
5.4 5.8 5.4 6.0 4.8 5.0 5.7 5.6 5.7 6.8 7.2 7.6 8.1 8.3 8.6 9.2 9.5 9.1 8.7 8.9 9.1 9.3 9.4 9.5 9.1 9.2 9.2
5.6 5.7 5.9 6.2 6.3 6.6 6.0 5.8 5.4 4.6 5.0 4.7 5.2 5.5 6.0 7.7 8.1 8.5 8.5 8.9 9.0 8.9 9.4 9.4 9.6 9.6 9.4
6.5 5.9 6.2 5.9 6.8 7.3 7.1 6.1 6.7 4.6 5.0 5.1 5.3 5.4 5.1 6.1 7.2 8.4 8.6 8.5 8.7 8.7 9.2 8.6 9.0 9.3 9.4
6.8 6.4 6.0 6.7 6.1 7.1 6.7 6.9 7.1 7.1 6.4 6.6 4.1 4.3 5.0 6.4 7.9 8.1 8.4 8.5 9.0 8.6 8.6 9.3 9.3 9.2 9.0
7.5 6.5 5.9 6.9 7.3 8.2 6.8 7.7 8.0 7.9 6.1 6.8 5.0 4.0 4.6 5.4 7.0 7.9 8.1 8.3 8.4 8.7 9.4 9.4 8.9 8.6 8.7
7.8 8.2 8.1 8.7 8.7 7.5 7.1 7.0 7.4 6.2 5.6 6.5 5.9 5.6 5.2 5.1 5.9 6.9 7.4 7.7 8.1 9.1 7.7 8.8 8.6 9.0 7.0
6.7 7.0 7.5 6.9 8.1 7.0 6.9 7.0 6.6 6.6 6.0 6.0 5.6 5.7 6.2 5.3 5.1 5.6 5.3 7.2 8.3 8.4 8.0 7.6 8.5 7.5 5.8
6.3 6.0 5.6 5.7 5.9 6.3 6.3 6.7 6.8 6.7 6.6 7.1 3.7 4.4 5.4 6.4 5.3 4.6 5.0 5.2 5.1 5.4 6.4 7.6 8.2 8.4 5.8
5.8 6.1 6.2 6.3 6.1 6.2 6.2 6.2 6.2 6.4 6.5 6.3 2.7 3.9 2.9 6.4 6.4 5.0 4.6 4.9 4.4 4.2 4.4 5.9 6.7 7.9 8.6
6.2 6.2 6.2 5.7 5.8 5.1 5.6 5.6 5.1 4.9 6.3 6.0 4.2 5.0 4.5 5.6 6.0 5.9 6.3 6.0 4.8 4.2 3.5 4.1 4.5 4.9 4.9
5.4 5.6 5.5 4.7 5.5 5.4 4.6 4.9 4.7 4.3 5.6 6.0 5.4 5.3 5.3 5.4 5.6 5.5 5.7 5.8 5.6 5.5 4.6 5.3 5.7 5.0 4.6
5.9 6.0 5.7 5.5 5.3 5.0 4.0 4.0 4.7 4.9 4.1 4.8 5.2 5.0 5.0 5.2 5.5 5.7 5.7 5.7 5.6 5.4 5.9 6.2 6.2 6.4 6.1
5.3 4.6 4.6 4.5 4.4 4.4 3.6 1.3 3.4 4.2 4.3 4.6 3.9 3.1 3.5 5.2 5.7 5.8 6.0 5.6 4.9 5.3 6.1 6.3 6.3 4.6 5.0
4.0 4.4 4.4 3.5 4.4 3.0 3.0 3.0 3.3 4.0 4.3 4.9 4.1 3.5 3.1 3.8 5.2 5.7 5.6 5.6 5.2 5.7 5.7 6.2 6.4 4.9 5.5
Wind_Speed
2 2 3 5 10 16 18 18 17 22 25 25 25 24 24 22 20 16 16 16 16 17 17 18 17 16 18
4 4 4 5 7 7 12 17 16 20 24 25 24 23 22 21 18 14 15 16 13 13 15 18 18 15 14
7 2 3 3 7 6 6 8 13 18 21 22 21 22 21 14 13 13 7 8 9 12 15 14 16 17 15
5 6 4 6 4 6 7 4 7 13 18 18 19 19 16 14 16 12 8 9 12 16 16 11 12 14 14
5 5 6 7 8 7 7 8 8 5 6 4 5 9 12 11 7 9 13 15 17 15 12 14 15 16 17
7 6 7 6 7 9 11 7 7 4 2 4 5 6 6 10 12 15 16 18 14 12 13 18 19 16 16
10 7 9 9 7 11 7 6 8 8 6 11 3 6 8 11 13 13 14 15 15 16 16 16 16 15 13
9 9 9 7 6 7 6 7 7 5 3 7 3 4 3 8 10 11 13 15 17 19 18 18 11 7 10
18 19 20 18 15 5 5 5 7 3 2 3 3 3 3 3 7 8 8 4 12 14 15 11 4 8 1
7 11 15 13 15 7 5 5 5 4 1 4 2 2 4 2 2 6 9 16 15 16 14 11 9 3 2
6 5 5 5 5 8 7 4 6 5 6 3 1 1 3 3 3 3 4 7 7 10 12 10 9 7 3
4 5 5 6 6 6 11 10 10 8 12 7 3 3 2 5 5 2 3 5 5 4 4 8 9 9 12
6 6 6 6 8 6 9 11 11 13 12 8 3 5 3 4 5 5 4 2 3 3 2 3 2 1 2
6 7 6 4 6 4 5 6 7 6 8 12 8 4 4 6 6 7 5 2 1 2 1 2 4 3 2
6 8 8 6 7 6 3 4 4 7 7 6 7 9 7 8 5 6 5 3 3 2 2 1 3 4 3
6 6 6 6 7 5 4 2 5 7 6 6 4 3 2 4 10 5 3 1 1 1 1 1 2 3 3
6 6 6 5 8 6 5 4 5 5 6 4 2 1 2 1 2 10 3 2 2 1 1 1 2 3 2
Wind_Direction
276 286 284 296 299 299 301 298 296 299 302 298 298 297 296 289 282 282 288 289 292 296 297 307 305 313 318
304 304 269 275 273 293 298 304 302 305 308 304 298 297 298 284 281 276 282 283 294 305 303 302 308 305 307
300 282 290 285 301 286 283 288 293 301 310 309 307 304 299 294 293 295 320 310 297 297 299 294 300 302 302
289 296 286 298 274 294 301 291 294 294 297 297 300 302 301 288 287 283 281 291 296 298 290 293 294 301 295
281 284 294 305 303 303 292 296 292 262 276 280 285 291 291 279 266 276 281 282 285 278 288 295 287 289 286
293 280 291 294 298 303 299 288 308 261 287 288 277 281 274 267 268 277 281 283 280 273 293 295 285 281 279
310 296 290 296 300 308 310 296 298 299 293 297 251 263 264 265 273 281 283 288 288 296 290 288 282 278 275
295 297 287 296 292 307 306 306 298 288 262 291 288 258 281 279 279 286 290 289 295 291 283 275 271 269 285
330 325 321 321 321 342 321 316 317 291 352 301 346 320 301 286 294 316 317 322 322 312 329 268 270 280 307
315 317 320 323 331 334 315 301 309 310 282 343 320 3 321 277 302 316 312 308 301 303 300 293 288 278 195
316 310 310 311 311 313 303 295 295 278 279 305 268 286 227 291 292 291 283 291 296 292 290 285 283 275 207
303 310 311 312 307 305 304 297 281 266 283 268 238 209 230 283 278 288 269 269 261 271 284 299 301 282 274
321 314 308 299 300 302 301 299 291 285 287 270 222 262 227 251 272 274 291 279 255 254 281 266 260 285 279
312 309 305 306 317 305 303 314 318 304 291 283 263 240 261 248 253 270 263 253 263 244 232 269 283 251 268
321 320 319 316 313 310 292 313 311 308 307 306 279 255 251 256 268 261 272 249 246 249 223 259 276 266 230
313 305 306 308 309 310 302 261 302 307 301 305 305 325 329 273 227 276 266 230 302 296 213 246 298 304 252
298 303 304 298 315 308 307 299 308 301 302 303 312 343 341 292 309 43 5 7 354 18 37 198 282 284 265